• In Österreich
  • Länderverzeichnis
  • Für 7 Tage
  • Wassertemperatur
  • Satellitenkarten
  • Wetterkarte
  • News
  • Widgets
  • user-avatar
    Anmelden

    Stündliche Wetter Boma

    Heute, 20 Oktober, Freitag

    Zeit Temperatur Niederschläge Wind Luftdruck Luftfeuchtigkeit
    00:00 +20°C° 0 mm 0 m/S 701 mmHg 96%
    01:00 +20°C° 0 mm 0 m/S 701 mmHg 97%
    02:00 +19°C° 0,3 mm 0 m/S 701 mmHg 97%
    03:00 +19°C° 0,3 mm 0 m/S 701 mmHg 97%
    04:00 +19°C° 0,3 mm 0 m/S 700 mmHg 98%
    05:00 +19°C° 0 mm 0 m/S 701 mmHg 97%
    06:00 +20°C° 0 mm 0 m/S 701 mmHg 96%
    07:00 +20°C° 0 mm 0 m/S 702 mmHg 95%
    08:00 +23°C° 0 mm 0 m/S 702 mmHg 84%
    09:00 +26°C° 0 mm 0 m/S 702 mmHg 73%
    10:00 +29°C° 0 mm 0 m/S 703 mmHg 62%
    11:00 +30°C° 0,1 mm 0 m/S 702 mmHg 56%
    12:00 +33°C° 0,1 mm 1 m/S 701 mmHg 50%
    13:00 +34°C° 0,1 mm 1 m/S 701 mmHg 44%
    14:00 +33°C° 0 mm 1 m/S 700 mmHg 47%
    15:00 +33°C° 0 mm 1 m/S 700 mmHg 49%
    16:00 +32°C° 0 mm 1 m/S 699 mmHg 52%
    17:00 +30°C° 0 mm 1 m/S 699 mmHg 59%
    18:00 +28°C° 0 mm 1 m/S 699 mmHg 67%
    19:00 +24°C° 0 mm 0 m/S 699 mmHg 74%
    20:00 +23°C° 0 mm 0 m/S 700 mmHg 77%
    21:00 +23°C° 0 mm 0 m/S 701 mmHg 79%
    22:00 +22°C° 0 mm 0 m/S 701 mmHg 82%
    23:00 +22°C° 0,2 mm 0 m/S 701 mmHg 85%

    Morgen, 21 Oktober, Samstag

    Zeit Temperatur Niederschläge Wind Luftdruck Luftfeuchtigkeit
    00:00 +21°C° 0,2 mm 0 m/S 701 mmHg 88%
    01:00 +21°C° 0,2 mm 0 m/S 701 mmHg 91%
    02:00 +20°C° 0,7 mm 0 m/S 700 mmHg 93%
    03:00 +20°C° 0,7 mm 0 m/S 700 mmHg 95%
    04:00 +19°C° 0,7 mm 0 m/S 700 mmHg 97%
    05:00 +20°C° 0,5 mm 0 m/S 700 mmHg 96%
    06:00 +20°C° 0,5 mm 0 m/S 701 mmHg 96%
    07:00 +21°C° 0,5 mm 0 m/S 701 mmHg 96%
    08:00 +23°C° 0,3 mm 0 m/S 702 mmHg 88%
    09:00 +25°C° 0,3 mm 0 m/S 702 mmHg 81%
    10:00 +27°C° 0,3 mm 0 m/S 702 mmHg 74%
    11:00 +31°C° 0,1 mm 1 m/S 702 mmHg 64%
    12:00 +32°C° 0,1 mm 1 m/S 701 mmHg 54%
    13:00 +34°C° 0,1 mm 1 m/S 701 mmHg 43%
    14:00 +34°C° 0 mm 1 m/S 700 mmHg 45%
    15:00 +33°C° 0 mm 1 m/S 699 mmHg 47%
    16:00 +33°C° 0 mm 1 m/S 699 mmHg 48%
    17:00 +30°C° 0 mm 1 m/S 699 mmHg 57%
    18:00 +28°C° 0 mm 1 m/S 700 mmHg 65%
    19:00 +24°C° 0 mm 0 m/S 700 mmHg 73%
    20:00 +23°C° 0,4 mm 0 m/S 700 mmHg 77%
    21:00 +23°C° 0,4 mm 0 m/S 701 mmHg 80%
    22:00 +23°C° 0,4 mm 0 m/S 701 mmHg 84%
    23:00 +22°C° 0,7 mm 0 m/S 701 mmHg 88%

    übermorgen, 22 Oktober, Sonntag

    Zeit Temperatur Niederschläge Wind Luftdruck Luftfeuchtigkeit
    00:00 +22°C° 0,7 mm 0 m/S 701 mmHg 92%
    01:00 +21°C° 0,7 mm 0 m/S 701 mmHg 95%
    02:00 +23°C° 0,4 mm 1 m/S 700 mmHg 96%
    03:00 +23°C° 0,4 mm 1 m/S 700 mmHg 96%
    04:00 +23°C° 0,4 mm 1 m/S 700 mmHg 97%
    05:00 +23°C° 0 mm 1 m/S 700 mmHg 97%
    06:00 +23°C° 0 mm 1 m/S 701 mmHg 96%
    07:00 +23°C° 0 mm 1 m/S 701 mmHg 96%
    08:00 +25°C° 0 mm 1 m/S 702 mmHg 86%
    09:00 +27°C° 0 mm 1 m/S 702 mmHg 76%
    10:00 +30°C° 0 mm 1 m/S 703 mmHg 66%
    11:00 +30°C° 0,8 mm 1 m/S 702 mmHg 68%
    12:00 +28°C° 0,8 mm 0 m/S 701 mmHg 69%
    13:00 +29°C° 0,8 mm 0 m/S 700 mmHg 71%
    14:00 +28°C° 1,3 mm 0 m/S 699 mmHg 75%
    15:00 +29°C° 1,3 mm 1 m/S 699 mmHg 80%
    16:00 +28°C° 1,3 mm 1 m/S 698 mmHg 84%
    17:00 +27°C° 0,2 mm 1 m/S 699 mmHg 88%
    18:00 +23°C° 0,2 mm 0 m/S 699 mmHg 91%
    19:00 +22°C° 0,2 mm 0 m/S 700 mmHg 94%
    20:00 +22°C° 0 mm 0 m/S 700 mmHg 95%
    21:00 +21°C° 0 mm 0 m/S 700 mmHg 95%
    22:00 +21°C° 0 mm 0 m/S 701 mmHg 96%
    23:00 +21°C° 0,2 mm 0 m/S 700 mmHg 96%

    23 Oktober, Montag

    Zeit Temperatur Niederschläge Wind Luftdruck Luftfeuchtigkeit
    00:00 +21°C° 0,2 mm 0 m/S 700 mmHg 96%
    01:00 +21°C° 0,2 mm 0 m/S 700 mmHg 96%
    02:00 +21°C° 0,3 mm 0 m/S 700 mmHg 97%
    03:00 +20°C° 0,3 mm 0 m/S 700 mmHg 97%
    04:00 +20°C° 0,3 mm 0 m/S 699 mmHg 98%
    05:00 +20°C° 0,1 mm 0 m/S 700 mmHg 97%
    06:00 +23°C° 0,1 mm 1 m/S 700 mmHg 97%
    07:00 +23°C° 0,1 mm 1 m/S 701 mmHg 96%
    08:00 +24°C° 0 mm 1 m/S 701 mmHg 91%
    09:00 +26°C° 0 mm 1 m/S 702 mmHg 85%
    10:00 +27°C° 0 mm 1 m/S 702 mmHg 79%
    11:00 +28°C° 0,6 mm 1 m/S 701 mmHg 77%
    12:00 +29°C° 0,6 mm 1 m/S 700 mmHg 76%
    13:00 +29°C° 0,6 mm 1 m/S 700 mmHg 74%
    14:00 +29°C° 0,9 mm 1 m/S 699 mmHg 77%
    15:00 +28°C° 0,9 mm 1 m/S 699 mmHg 80%
    16:00 +28°C° 0,9 mm 1 m/S 699 mmHg 83%
    17:00 +27°C° 0,1 mm 1 m/S 699 mmHg 87%
    18:00 +25°C° 0,1 mm 1 m/S 699 mmHg 91%
    19:00 +22°C° 0,1 mm 0 m/S 700 mmHg 96%
    20:00 +21°C° 0 mm 0 m/S 700 mmHg 96%
    21:00 +21°C° 0 mm 0 m/S 700 mmHg 96%
    22:00 +21°C° 0 mm 0 m/S 700 mmHg 96%
    23:00 +20°C° 0 mm 0 m/S 700 mmHg 96%

    24 Oktober, Dienstag

    Zeit Temperatur Niederschläge Wind Luftdruck Luftfeuchtigkeit
    00:00 +20°C° 0 mm 0 m/S 700 mmHg 97%
    01:00 +20°C° 0 mm 0 m/S 699 mmHg 97%
    02:00 +20°C° 0 mm 0 m/S 699 mmHg 97%
    03:00 +19°C° 0 mm 0 m/S 699 mmHg 98%
    04:00 +19°C° 0 mm 0 m/S 699 mmHg 98%
    05:00 +20°C° 0 mm 0 m/S 699 mmHg 97%
    06:00 +20°C° 0 mm 0 m/S 700 mmHg 96%
    07:00 +20°C° 0 mm 0 m/S 700 mmHg 95%
    08:00 +23°C° 0 mm 0 m/S 701 mmHg 85%
    09:00 +27°C° 0 mm 1 m/S 701 mmHg 76%
    10:00 +29°C° 0 mm 1 m/S 702 mmHg 66%
    11:00 +31°C° 0,1 mm 1 m/S 701 mmHg 59%
    12:00 +31°C° 0,1 mm 0 m/S 700 mmHg 52%
    13:00 +33°C° 0,1 mm 0 m/S 699 mmHg 45%
    14:00 +32°C° 0,1 mm 0 m/S 699 mmHg 48%
    15:00 +31°C° 0,1 mm 0 m/S 699 mmHg 50%
    16:00 +30°C° 0,1 mm 0 m/S 698 mmHg 53%
    17:00 +27°C° 0 mm 0 m/S 698 mmHg 61%
    18:00 +25°C° 0 mm 0 m/S 699 mmHg 68%
    19:00 +23°C° 0 mm 0 m/S 699 mmHg 76%
    20:00 +23°C° 0,1 mm 0 m/S 699 mmHg 79%
    21:00 +22°C° 0,1 mm 0 m/S 700 mmHg 83%
    22:00 +21°C° 0,1 mm 0 m/S 700 mmHg 86%
    23:00 +21°C° 0,4 mm 0 m/S 700 mmHg 89%

    25 Oktober, Mittwoch

    Zeit Temperatur Niederschläge Wind Luftdruck Luftfeuchtigkeit
    00:00 +21°C° 0,4 mm 0 m/S 699 mmHg 92%
    01:00 +20°C° 0,4 mm 0 m/S 699 mmHg 95%
    02:00 +20°C° 0,2 mm 0 m/S 699 mmHg 96%
    03:00 +20°C° 0,2 mm 0 m/S 699 mmHg 97%
    04:00 +20°C° 0,2 mm 0 m/S 699 mmHg 97%
    05:00 +20°C° 0 mm 0 m/S 700 mmHg 97%
    06:00 +21°C° 0 mm 0 m/S 700 mmHg 96%
    07:00 +21°C° 0 mm 0 m/S 701 mmHg 96%
    08:00 +23°C° 0 mm 0 m/S 701 mmHg 88%
    09:00 +26°C° 0 mm 1 m/S 701 mmHg 80%
    10:00 +28°C° 0 mm 1 m/S 701 mmHg 73%
    11:00 +30°C° 0,2 mm 1 m/S 701 mmHg 67%
    12:00 +29°C° 0,2 mm 0 m/S 700 mmHg 62%
    13:00 +31°C° 0,2 mm 0 m/S 700 mmHg 56%
    14:00 +30°C° 0,6 mm 0 m/S 699 mmHg 60%
    15:00 +31°C° 0,6 mm 1 m/S 699 mmHg 64%
    16:00 +30°C° 0,6 mm 1 m/S 699 mmHg 67%
    17:00 +28°C° 0,2 mm 1 m/S 699 mmHg 75%
    18:00 +26°C° 0,2 mm 1 m/S 699 mmHg 82%
    19:00 +24°C° 0,2 mm 1 m/S 699 mmHg 89%
    20:00 +24°C° 0 mm 1 m/S 700 mmHg 91%
    21:00 +24°C° 0 mm 1 m/S 700 mmHg 92%
    22:00 +21°C° 0 mm 0 m/S 700 mmHg 93%
    23:00 +21°C° 0 mm 0 m/S 700 mmHg 94%
    Mehr zeigen